Tracking 19717 objects as of 25-Jun-2019
HD Live streaming from Space Station
objects crossing your sky now

DELTA 1 DEB

Track DELTA 1 DEB now!
10-day predictions


NORAD ID: 13563
Int'l Code: 1978-026FA
Perigee: 799.1 km
Apogee: 865.6 km
Inclination: 98.8 °
Period: 101.4 minutes
Semi major axis: 7203 km
RCS: 0.058 m2 (small)
Launch date: March 5, 1978
Source: United States (US)
Launch site: AIR FORCE WESTERN TEST RANGE (AFWTR)

Note: This is SATELLITE DEBRIS
aabbcc
Your satellite tracking list
Your tracking list is empty




NASA's NSSDC Master Catalog

Two Line Element Set (TLE):
1 13563U 78026FA  19174.90181083 +.00000021 +00000-0 +30272-4 0  9994
2 13563 098.7666 155.8337 0046163 079.2567 341.8481 14.20052912920848
Source of the keplerian elements: AFSPC